This demonstration page uses our WeatherBlox Daily Observations layout. Learn more.

Left ArrowRight Arrow

Hourly Observations for May 5, 2021

Temp ( °F °C ) Dew Point ( °F °C ) Humidity (%) Winds ( mph kmh ) Pressure ( in mb ) Visibility ( mi km ) Precip ( " mm )
12:15 am 00:15 Clear 51 10.5 38 3.2 61 61 SSE 7 11 30.09 1019 10 16 N/A
12:35 am 00:35 Clear 51 10.3 38 3.5 63 63 SSE 6 9 30.09 1019 10 16 N/A
12:55 am 00:55 Clear 51 10.5 38 3.3 61 61 S 8 13 30.09 1019 10 16 N/A
1:15 am 01:15 Partly Cloudy 51 10.5 38 3.4 62 62 S 8 13 30.10 1019 10 16 N/A
1:35 am 01:35 Partly Cloudy 50 10 38 3.3 63 63 S 8 13 30.10 1019 10 16 N/A
1:55 am 01:55 Mostly Cloudy 50 9.8 38 3.3 64 64 S 7 11 30.10 1019 10 16 N/A
2:15 am 02:15 Cloudy 50 9.8 38 3.1 63 63 S 9 15 30.10 1019 10 16 N/A
2:35 am 02:35 Mostly Cloudy 50 10.1 38 3.2 63 63 S 8 13 30.10 1019 10 16 N/A
2:55 am 02:55 Cloudy 49 9.6 39 3.9 68 68 S 7 11 30.10 1019 10 16 N/A
3:15 am 03:15 Cloudy 50 9.8 38 3.5 65 65 S 8 13 30.09 1019 10 16 N/A
3:35 am 03:35 Cloudy 50 9.8 38 3.5 65 65 S 7 11 30.09 1019 10 16 N/A
3:55 am 03:55 Cloudy 49 9.3 39 4 70 70 S 6 9 30.10 1019 10 16 N/A
4:15 am 04:15 Cloudy 49 9.3 39 3.8 69 69 S 5 7 30.10 1019 10 16 N/A
4:35 am 04:35 Cloudy 49 9.3 39 3.8 69 69 S 6 9 30.09 1019 10 16 N/A
4:55 am 04:55 Cloudy with Light Rain 49 9.2 39 4 70 70 SSW 7 11 30.10 1019 10 16 N/A
5:15 am 05:15 Cloudy with Light Rain 49 9.7 38 3.6 66 66 S 9 15 30.09 1019 10 16 N/A
5:35 am 05:35 Cloudy 49 9.5 39 4 69 69 S 8 13 30.09 1019 10 16 N/A
5:55 am 05:55 Cloudy 49 9.5 39 4.1 69 69 S 7 11 30.10 1019 10 16 N/A
6:15 am 06:15 Cloudy 49 9.5 40 4.2 70 70 S 6 9 30.10 1019 10 16 N/A
6:35 am 06:35 Cloudy 49 9.7 39 3.9 67 67 S 7 11 30.10 1019 10 16 N/A
6:55 am 06:55 Cloudy 50 9.8 38 3.3 64 64 SSW 6 9 30.10 1019 10 16 N/A
7:15 am 07:15 Cloudy 50 10 38 3.4 64 64 SW 9 15 30.11 1020 10 16 N/A
7:35 am 07:35 Cloudy 50 10 38 3.4 64 64 SW 7 11 30.13 1020 10 16 N/A
7:55 am 07:55 Cloudy 50 10.1 38 3.6 64 64 SW 10 17 30.13 1020 10 16 N/A
8:15 am 08:15 Cloudy with Light Rain 49 9.7 40 4.7 71 71 SW 10 17 30.13 1020 10 16 N/A
8:35 am 08:35 Cloudy with Drizzle 50 10.1 40 4.6 69 69 SW 12 19 30.12 1020 10 16 N/A
8:55 am 08:55 Cloudy 50 10.1 40 4.6 69 69 SSW 14 22 30.12 1020 10 16 N/A
9:15 am 09:15 Cloudy 52 10.9 40 4.7 66 66 SSW 13 20 30.11 1020 10 16 N/A
9:35 am 09:35 Mostly Cloudy 54 12.2 41 5 62 62 SSW 15 24 30.09 1019 10 16 N/A
9:55 am 09:55 Partly Cloudy 56 13.4 39 4.1 54 54 SSW 18 30 30.07 1018 10 16 N/A
10:15 am 10:15 Partly Cloudy 58 14.4 40 4.7 52 52 SSW 15 24 30.05 1018 10 16 N/A
10:35 am 10:35 Mostly Cloudy 59 14.8 40 4.6 51 51 SSW 23 37 30.04 1017 10 16 N/A
10:55 am 10:55 Partly Cloudy 60 15.6 41 5 50 50 SSW 18 30 30.03 1017 10 16 N/A
11:15 am 11:15 Sunny 62 16.4 42 5.7 49 49 SSW 21 33 30.04 1017 10 16 N/A
11:35 am 11:35 Sunny 62 16.9 43 6 49 49 SW 14 22 30.03 1017 10 16 N/A
11:55 am 11:55 Sunny 64 17.6 44 6.5 48 48 WSW 15 24 30.03 1017 10 16 N/A
12:15 pm 12:15 Sunny 64 17.9 43 6 46 46 WSW 13 20 30.02 1017 10 16 N/A
12:35 pm 12:35 Sunny 65 18.6 44 6.7 46 46 W 13 20 30.02 1017 10 16 N/A
12:55 pm 12:55 Sunny 66 18.8 44 6.7 45 45 W 10 17 30.01 1016 10 16 N/A
1:15 pm 13:15 Partly Cloudy 67 19.6 44 6.8 44 44 W 13 20 29.99 1016 10 16 N/A
1:35 pm 13:35 Mostly Cloudy 67 19.3 43 6.3 43 43 WNW 13 20 29.99 1016 10 16 N/A
1:55 pm 13:55 Mostly Cloudy 70 20.9 45 7.2 41 41 NW 9 15 29.98 1015 10 16 N/A
2:15 pm 14:15 Mostly Cloudy 69 20.4 42 5.4 38 38 NW 12 19 29.98 1015 10 16 N/A
2:35 pm 14:35 Partly Cloudy 69 20.6 39 4.1 34 34 WNW 9 15 29.97 1015 10 16 N/A
2:55 pm 14:55 Partly Cloudy with Nearby Thunderstorms 68 19.9 38 3.2 33 33 NW 14 22 29.99 1016 10 16 N/A
3:15 pm 15:15 Partly Cloudy 69 20.4 37 2.7 31 31 NNW 14 22 29.98 1015 10 16 N/A
3:35 pm 15:35 Partly Cloudy 70 21 36 2.3 29 29 NW 21 33 29.98 1015 10 16 N/A
3:55 pm 15:55 Partly Cloudy 69 20.8 35 1.6 28 28 WNW 21 33 29.98 1015 10 16 N/A
4:15 pm 16:15 Sunny 69 20.4 34 1.3 28 28 NW 16 26 29.98 1015 10 16 N/A
4:35 pm 16:35 Partly Cloudy 68 20.1 36 2.2 31 31 NW 8 13 29.99 1015 10 16 N/A
4:55 pm 16:55 Partly Cloudy 69 20.3 33 0.8 27 27 NW 15 24 29.97 1015 10 16 N/A
5:15 pm 17:15 Sunny 70 21.3 34 1.3 27 27 N 16 26 29.98 1015 10 16 N/A
5:35 pm 17:35 Partly Cloudy 70 21.1 34 1.2 27 27 NNW 14 22 29.98 1015 10 16 N/A
5:55 pm 17:55 Partly Cloudy 69 20.8 33 0.4 26 26 NW 15 24 29.98 1015 10 16 N/A
6:15 pm 18:15 Sunny 70 21 31 -0.5 24 24 NNW 17 28 29.98 1015 10 16 N/A
6:35 pm 18:35 Sunny 69 20.6 32 -0.2 25 25 NNW 16 26 29.99 1016 10 16 N/A
6:55 pm 18:55 Sunny 69 20.6 31 -0.5 24 24 NNW 17 28 29.99 1016 10 16 N/A
7:15 pm 19:15 Sunny 68 20.2 31 -0.5 25 25 NNW 12 19 30.01 1016 10 16 N/A
7:35 pm 19:35 Sunny 67 19.7 31 -0.3 26 26 NNW 14 22 30.01 1016 10 16 N/A
7:55 pm 19:55 Sunny 66 18.7 32 0.1 29 29 N 13 20 30.03 1017 10 16 N/A
8:15 pm 20:15 Sunny 63 17.4 33 0.5 32 32 N 10 17 30.05 1018 10 16 N/A
8:35 pm 20:35 Partly Cloudy 62 16.5 33 0.3 34 34 N 10 17 30.08 1018 10 16 N/A
8:55 pm 20:55 Partly Cloudy 61 16.3 33 0.8 35 35 NNW 13 20 30.08 1019 10 16 N/A
9:15 pm 21:15 Mostly Cloudy 60 15.4 35 1.4 39 39 NNW 9 15 30.10 1019 10 16 N/A
9:35 pm 21:35 Partly Cloudy 59 14.8 36 2 42 42 NNW 7 11 30.11 1020 10 16 N/A
9:55 pm 21:55 Clear 57 13.9 36 2.3 46 46 NNW 8 13 30.13 1020 10 16 N/A
10:15 pm 22:15 Clear 56 13.2 36 2.3 48 48 NW 6 9 30.15 1021 10 16 N/A
10:35 pm 22:35 Clear 54 12.2 37 2.5 52 52 NNW 8 13 30.18 1022 10 16 N/A
10:55 pm 22:55 Clear 53 11.5 37 2.5 54 54 NNW 8 13 30.20 1023 10 16 N/A
11:15 pm 23:15 Clear 52 11.1 37 2.6 56 56 NNW 8 13 30.20 1023 10 16 N/A
11:35 pm 23:35 Clear 51 10.7 37 3 59 59 NNW 8 13 30.22 1023 10 16 N/A
11:55 pm 23:55 Clear 51 10.6 38 3.2 60 60 NW 7 11 30.22 1023 10 16 N/A

Powered by AerisWeather